Temperature
15 15 15 15 15 14 14 14 14 14 14 14 14 14 13 13 13 13 13 13 13 13 13 13 12 12 12 12 12 12 12 12 12 12 12 12 12 12 12 12 11 11 11
15 15 15 14 14 14 14 14 14 13 13 13 13 13 13 13 13 13 13 13 13 13 13 12 12 12 12 12 12 12 12 12 12 12 12 12 12 11 11 11 11 11 11
14 14 14 14 14 14 14 14 14 13 13 13 13 13 13 13 12 12 12 12 12 12 12 12 12 12 12 12 12 12 12 12 11 11 12 11 11 11 11 11 11 11 11
14 14 14 14 14 13 13 13 13 13 13 13 13 13 12 12 12 12 12 12 12 12 12 12 12 12 12 12 12 11 11 11 11 11 11 11 11 11 11 11 11 11 10
13 13 13 13 13 13 13 13 13 13 13 12 12 12 12 12 12 12 12 12 12 12 12 12 12 12 12 11 11 11 11 11 11 11 11 11 11 11 11 11 10 10 10
13 13 13 13 13 13 13 13 12 12 12 12 12 12 11 11 11 11 11 11 11 11 11 11 11 11 11 11 11 11 11 11 11 11 11 11 11 11 10 10 10 10 10
13 13 12 12 12 12 12 12 12 12 12 12 11 11 11 11 11 11 11 11 11 11 11 11 11 11 11 11 11 11 11 11 11 10 10 10 10 10 10 10 10 10 10
12 12 12 12 12 12 12 12 12 11 11 11 11 11 11 11 10 10 10 10 10 10 11 11 10 11 10 10 10 10 10 10 10 10 10 10 10 10 10 10 10 10 10
12 12 12 12 11 11 11 11 11 11 11 11 11 10 10 10 10 10 10 10 10 10 10 10 10 10 10 10 10 10 10 10 10 10 10 10 10 10 9 9 9 9 9
11 11 11 11 11 11 11 11 11 11 11 10 10 10 10 10 10 10 10 10 10 10 10 10 10 9 9 9 10 10 10 10 10 10 10 10 9 9 9 9 9 9 9
11 11 11 11 10 11 11 11 10 10 10 10 10 10 10 10 9 9 9 9 9 9 9 9 9 9 9 9 9 9 9 9 9 9 9 9 9 9 9 9 9 9 8
10 10 10 10 10 10 10 10 10 10 10 10 10 10 10 9 9 9 9 9 9 9 9 9 9 9 9 9 8 8 8 8 8 8 8 8 8 8 8 8 8 8 8
10 10 10 9 9 9 9 10 9 9 9 9 9 9 9 9 9 9 9 8 8 8 8 8 8 8 8 8 8 8 8 8 8 8 8 8 8 8 8 8 8 8 8
9 9 9 9 9 9 9 9 9 9 9 8 8 8 9 9 9 8 8 8 8 8 8 8 8 8 8 7 7 7 7 7 7 7 7 8 7 7 7 7 7 7 7
9 9 8 8 8 8 8 8 8 8 8 8 8 8 8 8 8 8 8 8 8 7 7 7 7 7 7 7 7 7 7 7 7 7 7 7 7 7 7 7 7 7 6
8 8 8 8 8 8 8 8 8 8 7 7 7 7 7 8 8 7 7 7 7 7 7 7 7 7 6 6 6 6 6 6 6 6 6 6 6 6 6 6 6 6 6
7 7 7 7 7 7 7 7 7 7 7 7 7 7 7 7 7 7 7 7 7 6 6 6 6 6 6 6 6 6 6 6 6 6 6 6 6 6 6 6 5 5 5
7 7 7 7 6 6 7 7 7 6 6 6 7 7 7 7 7 7 6 6 6 6 6 6 6 5 5 5 5 5 5 5 5 5 5 5 5 5 5 5 5 5 5
7 6 6 6 6 6 6 6 6 6 6 6 6 6 6 6 6 6 6 6 6 5 5 5 5 5 5 5 5 5 5 5 5 5 5 5 5 5 5 4 4 4 4
6 6 6 6 6 6 5 5 5 5 5 5 5 5 5 5 5 5 5 5 5 5 5 5 5 4 4 4 4 4 4 4 4 4 4 4 4 4 4 4 4 4 4
5 5 5 5 5 5 5 5 5 5 5 5 5 5 5 5 5 5 5 4 4 4 4 4 4 4 4 4 4 4 4 4 4 4 4 4 4 4 4 4 4 3 3
5 5 5 5 5 5 5 4 4 4 4 4 4 4 4 4 4 4 4 4 4 4 4 3 3 3 3 3 3 3 3 3 3 3 3 3 3 3 3 3 3 3 3
4 4 4 4 4 4 4 4 4 4 4 4 4 4 4 4 4 3 4 4 3 3 3 3 3 3 3 3 3 3 3 3 3 3 3 3 3 3 3 3 3 3 3
4 4 4 4 4 4 4 3 3 3 3 3 3 3 3 3 3 3 3 3 3 3 3 3 3 3 3 3 3 3 3 3 3 3 3 3 3 2 2 2 2 2 2
3 3 3 3 3 3 3 3 3 3 3 3 3 3 3 3 3 3 3 3 3 3 3 3 3 3 3 3 3 2 2 2 2 2 2 2 2 2 2 2 2 2 2
3 3 3 3 2 2 2 2 2 2 2 2 2 2 2 2 2 2 2 2 2 2 2 2 2 2 2 2 2 2 2 2 2 2 2 2 2 2 2 2 2 2 2
Wind_Speed
3 3 3 2 2 2 3 4 4 3 2 3 3 2 2 2 2 2 3 2 3 3 3 3 4 3 3 2 2 2 3 3 3 3 2 1 1 1 1 0 1 1 1
3 3 3 2 2 2 3 4 3 3 3 3 3 2 3 3 3 3 3 3 4 4 4 4 4 3 3 3 3 4 3 3 3 3 2 1 1 1 0 0 0 1 1
2 2 2 3 3 3 3 4 4 4 3 2 2 3 3 3 3 3 4 4 4 5 5 5 5 4 4 4 4 4 3 3 2 3 2 1 1 0 0 0 0 1 1
2 2 3 4 4 4 4 3 4 4 3 3 3 4 4 3 3 3 3 3 4 4 5 5 5 6 6 5 5 5 4 3 2 2 2 1 1 0 1 1 1 1 1
2 3 4 5 4 4 3 4 4 4 4 4 3 3 3 3 3 3 4 4 4 3 3 4 5 6 6 5 4 4 5 4 3 2 2 1 1 1 2 2 1 1 2
3 4 4 3 3 4 4 4 4 4 4 3 3 3 3 4 4 5 4 3 3 3 4 4 5 6 7 7 7 6 6 6 5 4 3 4 4 3 2 2 2 1 2
3 4 4 4 4 4 4 4 5 5 4 4 4 4 5 6 6 6 6 4 4 4 4 4 4 4 5 4 5 5 6 7 8 6 6 6 5 6 5 4 4 3 3
3 4 4 4 5 4 4 5 5 4 4 5 5 5 5 6 7 7 7 5 4 5 5 5 5 4 4 3 3 3 4 5 6 5 7 6 5 5 6 6 4 2 0
4 5 5 5 5 5 5 6 5 4 5 5 4 5 5 6 8 8 6 3 4 5 5 4 5 5 6 4 4 4 3 3 3 4 4 4 4 6 6 4 3 2 1
4 5 5 5 5 6 6 5 4 4 6 5 5 5 5 6 7 8 7 4 4 4 3 3 5 5 6 5 4 5 5 4 2 2 1 1 1 3 6 6 5 4 2
4 3 3 4 5 5 4 4 4 4 4 5 5 5 5 6 6 7 7 5 5 4 3 3 4 5 6 6 5 5 7 4 3 3 2 1 1 1 2 2 4 5 4
3 2 3 3 3 2 3 3 3 3 4 4 4 4 4 4 5 6 6 6 5 4 4 3 3 4 4 5 4 5 5 4 3 2 2 2 2 2 2 2 3 3 3
3 3 3 3 2 1 2 2 2 2 3 4 4 4 4 3 4 5 5 5 5 4 3 4 3 3 2 2 2 3 2 3 3 3 3 3 3 2 2 1 1 1 1
3 3 2 2 2 2 1 1 2 2 3 3 4 4 4 3 3 2 2 3 3 3 2 2 2 1 1 1 1 1 1 3 3 4 3 2 1 1 1 1 1 1 1
3 3 2 1 2 2 2 2 2 3 4 4 4 4 4 5 5 5 4 3 3 3 3 1 1 0 0 0 0 1 1 1 2 2 2 2 2 2 1 1 2 2 1
2 3 2 1 1 1 2 3 4 3 5 5 5 5 5 6 5 5 5 4 4 6 4 2 2 2 2 2 2 1 1 1 2 3 3 3 3 3 2 1 2 2 2
2 3 2 2 2 2 2 1 3 5 4 4 5 5 5 4 4 4 4 4 4 6 4 3 3 3 3 3 2 2 2 2 2 2 3 3 3 3 3 3 2 2 2
2 3 2 2 2 2 2 2 2 3 4 4 5 5 4 3 2 3 3 3 2 3 3 3 3 3 3 3 3 3 2 2 2 2 2 3 3 3 3 3 3 3 3
2 2 2 2 2 2 2 2 2 2 3 4 4 4 4 2 1 1 3 2 3 3 3 3 3 3 3 3 3 3 3 3 3 3 3 3 3 3 4 4 4 4 3
2 3 3 2 2 2 2 2 2 2 3 3 3 3 2 1 1 0 1 2 3 3 3 3 3 3 3 3 3 3 3 3 3 3 3 3 3 3 4 5 4 4 4
2 3 4 3 2 2 2 2 2 2 3 3 4 4 3 1 2 2 2 2 3 3 3 3 3 3 3 3 3 4 4 4 4 3 3 3 3 4 4 4 4 4 4
2 2 2 2 2 2 2 3 2 3 3 3 3 3 3 2 2 2 2 2 2 3 3 3 3 3 4 4 4 4 4 4 4 4 4 4 3 3 4 4 3 3 4
2 2 3 2 2 3 3 2 2 3 3 3 3 3 2 2 2 2 3 3 2 2 2 2 2 2 2 3 4 4 5 5 5 5 5 4 4 4 4 4 5 4 4
2 2 2 3 3 2 2 3 3 3 3 3 3 3 3 2 2 2 2 2 2 2 2 2 2 3 3 3 3 3 4 4 4 5 6 5 5 4 4 4 5 5 4
2 2 2 3 3 3 3 3 3 3 3 3 3 3 2 2 2 2 2 2 2 2 2 2 2 3 3 3 3 3 4 5 5 4 5 5 5 5 5 4 4 4 4
2 2 2 3 3 3 3 3 3 3 3 3 3 3 3 3 2 2 2 2 2 2 2 2 3 3 4 4 4 4 4 5 5 6 5 4 5 5 5 4 4 4 5
Wind_Direction
191 188 186 201 198 193 203 211 213 214 213 212 213 207 211 210 197 190 210 202 208 228 230 217 230 222 215 214 201 198 198 185 228 270 252 264 241 265 337 349 313 314 323
192 183 194 202 189 198 222 224 211 209 216 216 211 214 225 226 211 202 219 220 216 224 229 225 235 224 220 217 211 214 214 205 204 242 260 252 256 232 215 147 310 297 291
189 191 206 213 210 220 230 228 213 210 218 217 208 218 233 234 223 219 218 220 224 228 226 222 230 222 230 224 220 221 222 218 203 209 242 237 264 258 65 4 358 327 301
192 200 220 226 223 226 229 227 216 212 213 218 221 227 231 232 226 220 216 218 228 239 237 230 228 219 227 223 222 220 210 198 194 197 220 215 219 227 144 189 296 304 291
207 220 236 235 230 226 227 229 221 217 223 218 219 231 236 232 233 225 214 218 224 242 253 247 240 234 229 223 227 215 197 192 192 199 212 203 211 195 212 205 226 284 287
222 236 246 241 236 232 231 227 217 219 223 215 217 221 232 246 254 235 212 215 225 234 252 262 259 244 243 236 237 222 200 195 198 201 211 216 221 214 197 192 179 182 265
229 242 246 243 241 237 236 224 220 224 222 223 226 225 237 246 247 240 229 214 219 226 235 248 262 260 245 234 241 232 223 217 202 199 210 219 212 205 188 193 199 207 227
239 247 247 239 240 237 229 227 227 223 221 224 233 235 243 256 253 246 238 220 227 235 235 233 241 256 251 231 222 232 240 235 222 212 216 220 215 198 193 195 194 188 231
253 251 249 241 237 232 229 232 231 221 227 228 230 235 243 258 258 248 231 219 236 249 246 236 231 236 248 230 204 216 240 256 240 226 227 218 211 200 185 155 159 170 229
265 259 253 245 234 229 230 232 232 222 228 231 237 237 238 250 262 249 225 214 232 249 256 250 240 240 246 223 207 208 221 237 217 213 219 130 162 187 180 182 182 185 191
280 278 268 256 238 227 228 232 230 228 227 231 239 246 243 249 257 254 235 217 219 228 237 246 247 247 243 233 225 221 226 211 191 185 187 170 131 153 190 201 195 187 191
305 297 293 281 262 256 228 237 238 224 226 240 248 259 260 257 256 250 244 240 223 210 227 234 239 243 243 238 231 230 220 190 174 171 182 198 199 212 227 220 206 201 200
324 310 295 292 296 285 248 248 259 243 233 246 246 255 269 268 260 258 248 243 228 215 219 220 228 226 233 233 235 231 199 181 177 183 201 214 214 208 192 186 95 123 99
319 308 293 299 312 316 307 271 259 253 249 250 252 255 265 270 262 257 247 250 231 214 205 193 180 166 191 224 271 245 193 189 187 198 210 208 182 166 167 166 171 129 94
317 311 298 294 291 308 309 291 272 259 257 255 255 252 251 259 253 232 214 225 220 196 159 127 110 136 219 301 301 253 218 194 199 203 192 184 182 185 188 167 156 149 167
309 311 302 296 293 294 303 326 323 303 299 293 277 267 263 253 255 226 217 213 197 169 151 168 189 197 208 215 217 234 234 224 219 201 191 190 191 194 193 172 155 172 188
285 288 299 294 285 283 281 284 319 336 338 324 309 297 281 271 251 219 210 195 174 159 164 186 195 202 208 207 209 216 233 235 217 205 200 201 197 195 185 183 184 188 197
293 285 288 280 274 273 274 277 280 296 314 321 323 320 308 294 253 204 178 152 168 175 192 198 203 204 202 202 207 212 219 222 209 210 209 203 197 194 192 194 196 202 201
295 289 285 286 282 275 280 290 296 292 295 304 316 323 325 334 343 144 149 172 192 204 208 206 205 203 204 206 209 210 210 213 213 210 212 209 205 198 201 204 204 206 197
295 297 305 298 287 285 286 288 294 290 291 295 299 302 317 353 353 301 203 202 199 205 208 214 218 214 211 209 208 206 208 212 211 214 215 210 209 205 208 206 205 202 205
293 294 306 308 289 274 271 271 273 275 278 285 289 285 269 244 229 232 232 223 215 213 215 219 223 217 211 207 207 209 211 216 215 218 219 209 205 209 214 213 208 202 200
284 283 283 283 287 280 278 273 270 268 272 277 290 296 273 252 231 226 229 234 230 230 220 215 222 222 213 209 209 212 216 222 223 221 217 208 205 209 208 205 205 201 196
294 294 296 296 295 289 291 286 278 271 274 277 281 288 278 253 244 235 231 229 225 223 213 204 217 230 230 220 212 211 218 226 224 213 204 203 205 208 210 207 204 204 201
289 287 292 299 303 297 285 283 282 279 278 282 287 287 279 264 254 242 239 234 223 218 206 210 220 233 238 231 222 222 232 239 222 208 200 202 206 206 205 207 207 206 204
284 286 289 292 294 293 290 291 289 285 281 281 284 287 284 276 271 266 256 241 231 233 232 227 226 232 234 233 238 245 249 241 227 211 201 199 203 205 203 204 205 199 197
296 292 290 290 289 287 283 283 284 285 283 279 275 273 269 260 256 256 247 240 239 235 238 237 236 235 237 237 241 247 249 245 232 217 204 197 200 202 198 198 198 196 191
Height
1518 1519 1519 1519 1520 1520 1520 1521 1521 1522 1522 1522 1522 1521 1521 1521 1521 1522 1522 1522 1522 1522 1522 1522 1523 1523 1523 1524 1524 1524 1525 1525 1524 1523 1523 1524 1524 1524 1524 1524 1524 1524 1524
1515 1515 1516 1516 1516 1516 1517 1517 1518 1518 1518 1518 1518 1518 1518 1518 1518 1518 1518 1518 1518 1518 1518 1518 1519 1519 1520 1520 1521 1521 1521 1522 1521 1521 1521 1521 1521 1522 1522 1522 1522 1522 1522
1511 1512 1512 1512 1512 1513 1513 1514 1514 1514 1515 1515 1515 1515 1514 1514 1514 1514 1514 1514 1514 1514 1514 1515 1515 1515 1516 1516 1517 1517 1518 1518 1518 1518 1518 1518 1518 1519 1519 1519 1520 1520 1520
1508 1508 1508 1508 1509 1509 1510 1510 1510 1511 1511 1511 1511 1511 1511 1511 1510 1510 1510 1510 1510 1510 1511 1511 1511 1511 1512 1512 1512 1513 1513 1514 1514 1514 1514 1515 1515 1515 1516 1516 1517 1517 1517
1504 1504 1504 1504 1505 1505 1505 1506 1506 1506 1506 1507 1507 1507 1507 1506 1506 1506 1506 1506 1506 1506 1506 1506 1507 1507 1508 1508 1509 1509 1509 1510 1510 1510 1511 1511 1511 1512 1512 1513 1513 1514 1515
1500 1500 1500 1500 1500 1500 1501 1501 1502 1502 1502 1502 1502 1502 1502 1502 1502 1502 1502 1502 1501 1501 1502 1502 1502 1503 1503 1504 1504 1505 1505 1505 1506 1506 1506 1507 1507 1508 1509 1510 1510 1511 1511
1495 1496 1496 1496 1495 1495 1496 1496 1497 1497 1497 1497 1497 1497 1497 1497 1497 1497 1497 1497 1497 1497 1497 1497 1498 1498 1499 1499 1500 1500 1500 1501 1501 1502 1502 1503 1504 1505 1505 1506 1507 1507 1507
1491 1491 1491 1491 1490 1491 1491 1491 1492 1492 1493 1493 1493 1493 1492 1492 1492 1492 1493 1493 1493 1493 1493 1493 1493 1494 1494 1494 1495 1495 1496 1496 1496 1497 1498 1499 1500 1501 1501 1503 1503 1504 1504
1486 1486 1486 1486 1485 1485 1485 1486 1487 1487 1487 1488 1488 1488 1487 1487 1488 1488 1488 1488 1487 1488 1488 1488 1489 1489 1490 1490 1490 1490 1491 1492 1493 1493 1494 1494 1495 1496 1497 1498 1498 1499 1499
1482 1482 1481 1481 1480 1480 1481 1481 1482 1482 1482 1483 1483 1483 1482 1482 1482 1483 1483 1482 1482 1482 1483 1483 1484 1484 1485 1485 1485 1486 1486 1487 1488 1488 1489 1490 1490 1491 1492 1493 1494 1494 1495
1479 1478 1477 1476 1476 1476 1476 1477 1477 1478 1478 1477 1477 1478 1478 1477 1477 1477 1478 1478 1477 1477 1477 1477 1478 1479 1480 1480 1480 1481 1481 1483 1483 1484 1485 1485 1486 1487 1488 1489 1489 1490 1491
1475 1474 1473 1472 1472 1472 1472 1472 1473 1473 1473 1472 1472 1472 1472 1472 1472 1472 1473 1473 1472 1472 1472 1473 1473 1474 1475 1475 1476 1476 1477 1478 1478 1479 1480 1480 1481 1482 1483 1484 1485 1486 1487
1472 1471 1470 1469 1468 1468 1468 1468 1468 1468 1468 1467 1467 1467 1467 1467 1467 1468 1468 1468 1467 1467 1467 1468 1469 1469 1470 1470 1471 1472 1472 1472 1473 1474 1474 1475 1477 1478 1479 1480 1481 1482 1483
1469 1468 1467 1466 1465 1465 1465 1465 1465 1464 1464 1463 1463 1462 1462 1462 1462 1462 1462 1463 1462 1462 1463 1463 1464 1464 1465 1465 1466 1467 1467 1468 1469 1469 1470 1471 1473 1474 1475 1476 1476 1477 1478
1467 1465 1464 1463 1463 1462 1462 1462 1461 1461 1461 1460 1459 1458 1458 1457 1457 1457 1457 1457 1457 1457 1458 1459 1459 1460 1460 1461 1462 1462 1463 1464 1465 1465 1466 1467 1468 1469 1470 1471 1472 1473 1473
1464 1462 1461 1460 1459 1459 1458 1458 1458 1458 1457 1456 1456 1455 1453 1453 1453 1452 1453 1453 1453 1453 1454 1454 1454 1455 1456 1457 1457 1458 1459 1460 1460 1461 1462 1463 1464 1465 1466 1467 1468 1469 1469
1461 1460 1458 1457 1456 1456 1455 1454 1452 1452 1453 1452 1451 1451 1450 1448 1448 1448 1448 1448 1448 1448 1449 1449 1450 1451 1452 1453 1453 1454 1455 1456 1456 1457 1458 1459 1460 1461 1462 1463 1464 1465 1466
1458 1457 1456 1455 1454 1453 1452 1451 1450 1449 1448 1447 1447 1446 1445 1444 1443 1443 1443 1443 1443 1444 1444 1445 1446 1447 1448 1448 1449 1450 1451 1452 1452 1453 1454 1455 1456 1457 1458 1459 1460 1461 1462
1456 1454 1453 1452 1451 1450 1449 1448 1447 1446 1445 1443 1442 1442 1441 1440 1439 1439 1439 1439 1439 1439 1440 1441 1442 1443 1444 1444 1445 1446 1447 1447 1448 1449 1450 1451 1452 1453 1454 1455 1456 1457 1458
1452 1451 1450 1449 1448 1447 1446 1445 1444 1443 1442 1440 1439 1438 1437 1436 1435 1435 1436 1436 1436 1436 1437 1437 1438 1439 1440 1440 1441 1442 1442 1443 1443 1444 1445 1446 1447 1448 1450 1451 1452 1453 1453
1449 1448 1447 1446 1445 1444 1443 1443 1441 1440 1439 1437 1436 1435 1434 1433 1432 1433 1433 1433 1433 1433 1433 1434 1435 1435 1436 1437 1437 1438 1438 1439 1439 1440 1440 1441 1443 1444 1445 1447 1448 1449 1450
1446 1445 1444 1443 1441 1441 1440 1439 1438 1437 1436 1434 1433 1432 1431 1431 1430 1430 1430 1430 1430 1430 1431 1431 1431 1432 1432 1433 1433 1433 1434 1434 1435 1435 1436 1437 1438 1440 1441 1442 1443 1445 1446
1443 1441 1440 1439 1438 1437 1436 1436 1435 1434 1432 1431 1430 1429 1429 1428 1427 1427 1427 1427 1427 1427 1428 1428 1428 1428 1429 1429 1429 1430 1430 1430 1431 1431 1432 1433 1434 1435 1437 1438 1439 1440 1441
1439 1438 1437 1436 1434 1433 1433 1432 1431 1430 1429 1428 1427 1426 1426 1425 1425 1424 1424 1424 1424 1424 1424 1424 1425 1425 1425 1425 1426 1426 1426 1426 1427 1427 1428 1429 1430 1431 1432 1434 1435 1436 1437
1436 1435 1434 1432 1431 1430 1429 1428 1427 1427 1426 1425 1424 1424 1423 1423 1422 1422 1421 1421 1421 1421 1421 1421 1421 1422 1422 1422 1422 1422 1422 1422 1423 1424 1424 1425 1426 1427 1428 1429 1431 1432 1433
1433 1431 1430 1429 1428 1427 1426 1425 1424 1423 1423 1422 1421 1420 1420 1419 1419 1419 1418 1418 1418 1418 1418 1418 1418 1418 1418 1418 1419 1419 1419 1419 1419 1420 1420 1421 1422 1423 1424 1425 1427 1428 1429